Location: Home
(42.5358°N, 72.7383°W)
Time: 09:46:19
(UTC-05:00)

S-56A Canister/Altair - Pass Details

Date: 03 December 2021
Orbit: 634 x 2499 km, 38.9° (Epoch: 22 January)

Event Time Altitude Azimuth Distance (km) Brightness Sun altitude
Rises 21:55:35 0° 211° (SSW) 5,705 12.0 -60.1°
Enters shadow 21:55:37 - 211° (SSW) 5,698 12.0 -60.1°
Reaches altitude 10° 22:00:24 10° 201° (SSW) 4,426 - -60.8°
Maximum altitude 22:09:20 27° 150° (SSE) 2,682 - -62.1°
Drops below altitude 10° 22:15:57 10° 97° (E) 3,226 - -63.1°
Sets 22:18:50 0° 85° (E) 3,941 - -63.4°
